Weather History for Waseca, MN

Change the Weather History Date:

Monday, February 18, 2013

  Actual Average Record
Temperature  
Mean Temperature 18 °F -  
Max Temperature 32 °F 28 °F 63 °F (1981)
Min Temperature 3 °F 13 °F -20 °F (1993)
Degree Days  
Heating Degree Days 48    
Moisture  
Dew Point 16 °F    
Average Humidity 82    
Maximum Humidity 93    
Minimum Humidity 69    
Precipitation  
Precipitation 0.00 in - - ()
Sea Level Pressure  
Sea Level Pressure 29.67 in    
Wind  
Wind Speed 18 mph (West)    
Max Wind Speed 36 mph    
Max Gust Speed 40 mph    
Visibility 8 miles    
Events Snow    
Averages and records for this station are not official NWS values.
T = Trace of Precipitation, MM = Missing Value Source: NWS Daily Summary

Daily Weather History Graph

Daily Weather History Graph

Search for Another Location

Airport:

Trip Planner

Search our weather history database for the weather conditions in past years. The results will help you decide how hot, cold, wet, or windy it might be!

Date:

Astronomy

Feb. 18, 2013 Rise Set
Actual Time 7:08 AM CST 5:48 PM CST
Civil Twilight 6:39 AM CST 6:17 PM CST
Nautical Twilight 6:05 AM CST 6:51 PM CST
Astronomical Twilight 5:32 AM CST 7:24 PM CST
Moon 11:28 AM CST (2/18) 1:54 AM CST (2/18)
Length of Visible Light 11h 38m
Length of Day
10h 39m
First Quarter, 58% of the Moon is Illuminated
Feb 18
First Quarter
Feb 25
Full
Mar 4
Last Quarter
Mar 11
New
Mar 19
First Quarter

Hourly Weather History & Observations

Time (CST) Temp. Windchill Dew Point Humidity Pressure Visibility Wind Dir Wind Speed Gust Speed Precip Events Conditions
12:15 AM 32.0 °F 20.8 °F 24.8 °F 75% 29.60 in 10.0 mi SSE 17.3 mph 29.9 mph N/A   Clear
12:35 AM 32.0 °F 20.5 °F 23.0 °F 69% 29.59 in 10.0 mi SSE 18.4 mph 26.5 mph N/A   Clear
12:55 AM 32.0 °F 20.1 °F 23.0 °F 69% 29.59 in 10.0 mi SSE 19.6 mph 25.3 mph N/A   Clear
1:15 AM 32.0 °F 21.6 °F 24.8 °F 75% 29.58 in 10.0 mi SSE 15.0 mph 23.0 mph N/A   Clear
1:35 AM 32.0 °F 20.1 °F 24.8 °F 75% 29.58 in 10.0 mi South 19.6 mph 25.3 mph N/A   Clear
1:55 AM 32.0 °F 21.6 °F 24.8 °F 75% 29.58 in 10.0 mi SSE 15.0 mph 23.0 mph N/A   Clear
2:15 AM 32.0 °F 22.1 °F 26.6 °F 80% 29.58 in 10.0 mi South 13.8 mph 21.9 mph N/A   Clear
2:35 AM 32.0 °F 22.1 °F 24.8 °F 75% 29.58 in 10.0 mi South 13.8 mph - N/A   Clear
2:56 AM 32.0 °F 21.6 °F 26.6 °F 80% 29.58 in 10.0 mi South 15.0 mph - N/A   Clear
3:15 AM 32.0 °F 22.5 °F 26.6 °F 80% 29.56 in 10.0 mi South 12.7 mph 17.3 mph N/A   Clear
3:35 AM 32.0 °F 21.6 °F 26.6 °F 80% 29.56 in 10.0 mi South 15.0 mph - N/A   Clear
3:56 AM 32.0 °F 21.2 °F 26.6 °F 80% 29.54 in 10.0 mi South 16.1 mph - N/A   Clear
4:15 AM 32.0 °F 24.2 °F 26.6 °F 80% 29.54 in 10.0 mi South 9.2 mph - N/A   Clear
4:35 AM 32.0 °F 24.2 °F 26.6 °F 80% 29.55 in 10.0 mi South 9.2 mph - N/A   Clear
4:56 AM 32.0 °F 24.8 °F 26.6 °F 80% 29.55 in 10.0 mi SSW 8.1 mph - N/A   Clear
5:15 AM 30.2 °F 22.6 °F 24.8 °F 80% 29.54 in 10.0 mi South 8.1 mph - N/A   Clear
5:35 AM 30.2 °F 22.6 °F 24.8 °F 80% 29.55 in 10.0 mi South 8.1 mph - N/A   Clear
5:55 AM 30.2 °F 21.9 °F 26.6 °F 86% 29.55 in 10.0 mi SSW 9.2 mph - N/A   Clear
6:15 AM 28.4 °F 21.2 °F 24.8 °F 86% 29.55 in 10.0 mi SW 6.9 mph - N/A   Clear
6:35 AM 28.4 °F 22.2 °F 23.0 °F 80% 29.55 in 10.0 mi SSW 5.8 mph - N/A   Clear
6:55 AM 26.6 °F 22.6 °F 24.8 °F 93% 29.55 in 10.0 mi SW 3.5 mph - N/A   Clear
7:15 AM 26.6 °F 21.2 °F 24.8 °F 93% 29.56 in 7.0 mi SSW 4.6 mph - N/A   Scattered Clouds
7:35 AM 28.4 °F 21.2 °F 26.6 °F 93% 29.57 in 7.0 mi SSW 6.9 mph - N/A   Scattered Clouds
8:15 AM 32.0 °F 26.4 °F 30.2 °F 93% 29.58 in 10.0 mi SW 5.8 mph - N/A   Overcast
8:35 AM 32.0 °F 25.6 °F 30.2 °F 93% 29.59 in 10.0 mi SW 6.9 mph - N/A   Overcast
8:55 AM 32.0 °F 25.6 °F 28.4 °F 87% 29.59 in 10.0 mi SW 6.9 mph - N/A   Overcast
9:15 AM 32.0 °F 25.6 °F 28.4 °F 87% 29.57 in 10.0 mi West 6.9 mph - N/A   Overcast
9:35 AM 32.0 °F 24.2 °F 30.2 °F 93% 29.57 in 10.0 mi West 9.2 mph - N/A   Overcast
9:55 AM 32.0 °F 25.6 °F 30.2 °F 93% 29.59 in 10.0 mi West 6.9 mph - N/A   Overcast
10:15 AM 32.0 °F 21.6 °F 30.2 °F 93% 29.60 in 3.0 mi West 15.0 mph - N/A   Overcast
10:35 AM 30.2 °F 16.5 °F 26.6 °F 86% 29.61 in 1.2 mi WNW 24.2 mph 33.4 mph N/A   Overcast
10:55 AM 28.4 °F 14.7 °F 26.6 °F 93% 29.62 in 5.0 mi WNW 21.9 mph 26.5 mph N/A   Overcast
11:15 AM 26.6 °F 11.4 °F 24.8 °F 93% 29.62 in 10.0 mi WNW 25.3 mph 33.4 mph N/A   Overcast
11:35 AM 26.6 °F 11.1 °F 23.0 °F 86% 29.63 in 10.0 mi WNW 26.5 mph 32.2 mph N/A   Overcast
11:56 AM 26.6 °F 10.8 °F 21.2 °F 80% 29.63 in 10.0 mi WNW 27.6 mph 32.2 mph N/A   Overcast
12:15 PM 26.6 °F 10.8 °F 21.2 °F 80% 29.63 in 10.0 mi WNW 27.6 mph 34.5 mph N/A   Overcast
12:36 PM 23.0 °F 5.7 °F 19.4 °F 86% 29.63 in 10.0 mi WNW 28.8 mph 36.8 mph N/A   Overcast
12:55 PM 23.0 °F 6.0 °F 19.4 °F 86% 29.64 in 10.0 mi WNW 27.6 mph 36.8 mph N/A   Overcast
1:15 PM 21.2 °F 4.9 °F 17.6 °F 86% 29.65 in 10.0 mi WNW 23.0 mph 31.1 mph N/A   Overcast
1:36 PM 21.2 °F 3.3 °F 15.8 °F 80% 29.66 in 10.0 mi WNW 28.8 mph 35.7 mph N/A   Overcast
1:56 PM 19.4 °F 1.8 °F 14.0 °F 80% 29.67 in 10.0 mi WNW 25.3 mph 33.4 mph N/A   Overcast
2:15 PM 19.4 °F 1.1 °F 14.0 °F 80% 29.68 in 7.0 mi West 27.6 mph 34.5 mph N/A   Overcast
2:35 PM 19.4 °F -0.0 °F 14.0 °F 80% 29.69 in 7.0 mi West 32.2 mph 36.8 mph N/A   Mostly Cloudy
2:56 PM 17.6 °F -1.3 °F 12.2 °F 79% 29.70 in 10.0 mi West 27.6 mph 34.5 mph N/A   Mostly Cloudy
3:15 PM 17.6 °F -1.3 °F 12.2 °F 79% 29.70 in 7.0 mi WNW 27.6 mph 35.7 mph N/A Snow Light Snow
3:35 PM 17.6 °F -1.9 °F 12.2 °F 79% 29.71 in 4.0 mi WNW 29.9 mph 36.8 mph N/A Snow Light Snow
3:55 PM 17.6 °F -1.3 °F 10.4 °F 73% 29.73 in 5.0 mi WNW 27.6 mph 40.3 mph N/A Snow Light Snow
4:15 PM 14.0 °F -8.3 °F 10.4 °F 86% 29.73 in 5.0 mi WNW 35.7 mph 40.3 mph N/A Snow Light Snow
4:35 PM 14.0 °F -6.8 °F 8.6 °F 79% 29.74 in 4.0 mi WNW 29.9 mph 38.0 mph N/A Snow Light Snow
4:55 PM 12.2 °F -9.3 °F 8.6 °F 85% 29.74 in 5.0 mi WNW 29.9 mph 40.3 mph N/A   Haze
5:15 PM 12.2 °F -9.3 °F 6.8 °F 79% 29.75 in 7.0 mi WNW 29.9 mph 38.0 mph N/A   Overcast
5:36 PM 12.2 °F -7.5 °F 5.0 °F 73% 29.76 in 10.0 mi WNW 24.2 mph 38.0 mph N/A   Overcast
5:55 PM 12.2 °F -9.9 °F 6.8 °F 79% 29.76 in 5.0 mi WNW 32.2 mph 38.0 mph N/A   Haze
6:15 PM 12.2 °F -8.6 °F 5.0 °F 73% 29.77 in 7.0 mi WNW 27.6 mph 40.3 mph N/A   Overcast
6:35 PM 10.4 °F -12.3 °F 5.0 °F 79% 29.78 in 10.0 mi WNW 32.2 mph 38.0 mph N/A   Overcast
6:56 PM 8.6 °F -12.7 °F 3.2 °F 79% 29.79 in 10.0 mi WNW 25.3 mph 38.0 mph N/A   Overcast
7:15 PM 8.6 °F -14.1 °F 3.2 °F 79% 29.79 in 5.0 mi WNW 29.9 mph 35.7 mph N/A   Haze
7:35 PM 6.8 °F -16.6 °F 1.4 °F 79% 29.80 in 7.0 mi WNW 29.9 mph 35.7 mph N/A Snow Light Snow
7:56 PM 6.8 °F -16.2 °F 1.4 °F 79% 29.80 in 5.0 mi WNW 28.8 mph 38.0 mph N/A Snow Light Snow
8:15 PM 6.8 °F -14.7 °F 1.4 °F 79% 29.80 in 4.0 mi WNW 24.2 mph 29.9 mph N/A Snow Light Snow
8:36 PM 5.0 °F -18.7 °F 1.4 °F 85% 29.80 in 2.5 mi WNW 28.8 mph 36.8 mph N/A Snow Light Snow
8:55 PM 5.0 °F -17.1 °F 1.4 °F 85% 29.80 in 2.0 mi WNW 24.2 mph 31.1 mph N/A Snow Light Snow
9:15 PM 5.0 °F -15.7 °F 1.4 °F 85% 29.81 in 1.8 mi WNW 20.7 mph 33.4 mph N/A Snow Light Snow
9:36 PM 5.0 °F -18.3 °F 1.4 °F 85% 29.81 in 2.0 mi WNW 27.6 mph 32.2 mph N/A Snow Light Snow
9:55 PM 5.0 °F -17.1 °F -0.4 °F 78% 29.81 in 2.5 mi WNW 24.2 mph 31.1 mph N/A Snow Light Snow
10:15 PM 3.2 °F -20.3 °F -0.4 °F 85% 29.81 in 3.0 mi WNW 26.5 mph 34.5 mph N/A Snow Light Snow
10:35 PM 3.2 °F -20.3 °F -0.4 °F 85% 29.81 in 4.0 mi WNW 26.5 mph 35.7 mph N/A Snow Light Snow
10:55 PM 3.2 °F -21.1 °F -0.4 °F 85% 29.82 in 3.0 mi WNW 28.8 mph 35.7 mph N/A Snow Light Snow
11:15 PM 3.2 °F -21.1 °F -0.4 °F 85% 29.82 in 3.0 mi WNW 28.8 mph 34.5 mph N/A   Overcast
11:35 PM 3.2 °F -20.3 °F -0.4 °F 85% 29.84 in 3.0 mi WNW 26.5 mph 33.4 mph N/A   Haze
11:55 PM 3.2 °F -19.0 °F -0.4 °F 85% 29.85 in 4.0 mi WNW 23.0 mph 32.2 mph N/A   Haze